www.pogodaiklimat.ru

Погода и климат >> Архив погоды >> Дания >> Мейруп


ПОГОДА в Мейрупе

  • Прогноз погоды в Мейрупе
  • Монитор погоды в Мейрупе

АРХИВ ПОГОДЫ в Мейрупе

Время (UTC), дата Ветер
(напр.,м/с)
 
Видим.   Явления Облачность Т
(С)
Тd
(С)
f
(%)
Тe
(С)
Тes
(С)
Комфортность P
(гПа)
Po
(гПа)
Тmin
(С)
Tmax
(С)
R
(мм)
R24
(мм)
S
(см)
10 18.06 ЮЗ 4 н/о н/о +21.7 +14.8 65 +25 +25 комфорт 1014.5 1008.3
11 18.06 З 4 н/о н/о +21.4 +15.6 70 +25 +25 комфорт 1014.5 1008.3
12 18.06 ЮЗ 3 н/о н/о +22.6 +15.2 63 +26 +26 жарко 1014.2 1008.1
13 18.06 З 5 н/о н/о +22.5 +15.8 66 +27 +27 душно 1014.1 1007.9
14 18.06 З 5 н/о н/о +21.6 +14.4 64 +25 +25 комфорт 1013.9 1007.7
15 18.06 З 5 н/о н/о +20.4 +13.2 63 +22 +22 комфорт 1013.7 1007.5
16 18.06 ЮЗ 4 н/о н/о +19.9 +11.6 59 +21 +21 комфорт 1013.6 1007.4
17 18.06 ЮЗ 4 н/о н/о +19.6 +11.8 61 +21 +21 комфорт 1013.7 1007.5
18 18.06 З 3 н/о н/о +17.6 +12.2 71 +18 +18 1013.4 1007.2 +16.6 +22.8
19 18.06 З 2 н/о н/о +16.3 +12.7 79 +17 +17 1013.5 1007.2
20 18.06 З 2 н/о н/о +15.4 +12.7 84 +16 +16 1013.7 1007.4
21 18.06 З 2 н/о н/о +14.4 +13.0 91 +14 +14 1013.5 1007.2
22 18.06 СЗ 1 н/о н/о +13.3 +12.6 96 +14 +14 1013.4 1007.0
23 18.06 СЗ 2 н/о н/о +12.0 +11.6 97 +11 +11 1013.2 1006.8
00 19.06 С 1 н/о н/о +11.8 +11.6 99 +11 +11 1012.8 1006.4
01 19.06 С 2 н/о н/о +12.0 +11.8 99 +11 +11 1012.6 1006.2
02 19.06 СВ 2 н/о н/о +11.5 +11.4 99 +11 +11 1012.3 1005.8
03 19.06 СВ 1 н/о н/о +11.2 +11.2 100 +12 +12 1012.0 1005.6
04 19.06 СВ 2 н/о н/о +12.1 +12.1 100 +11 +11 1011.7 1005.3
05 19.06 СВ 2 н/о н/о +12.8 +12.8 100 +12 +12 1011.4 1005.0
06 19.06 В 2 н/о н/о +14.5 +14.3 99 +14 +14 1011.1 1004.8 +11.0 +17.7
07 19.06 СВ 3 н/о н/о +16.6 +14.8 89 +16 +16 1010.8 1004.5
08 19.06 В 3 н/о н/о +16.7 +14.1 85 +17 +17 1010.7 1004.4
09 19.06 С 2 н/о н/о +17.5 +15.1 86 +18 +18 1010.0 1003.7
10 19.06 СВ 4 н/о н/о +19.3 +15.9 81 +21 +21 комфорт 1008.7 1002.5
11 19.06 СВ 4 н/о н/о +21.1 +17.3 79 +25 +25 комфорт 1008.2 1002.1
12 19.06 В 4 н/о н/о +23.3 +17.6 70 +29 +29 душно 1007.5 1001.4
13 19.06 В 3 н/о н/о +23.5 +18.2 72 +28 +28 душно 1006.7 1000.6
14 19.06 ЮВ 5 н/о н/о +26.0 +16.7 57 +30 +30 душно 1005.5 999.4
15 19.06 ЮВ 7 н/о н/о +23.8 +17.2 67 +28 +28 душно 1004.0 997.9
16 19.06 ЮВ 4 н/о н/о +22.1 +18.0 78 +27 +27 душно 1003.1 997.0
17 19.06 ЮВ 6 н/о н/о +16.9 +16.2 96 +16 +16 1004.3 998.1
18 19.06 Ю 3
{21}
н/о н/о +19.6 +18.4 93 +23 +23 комфорт 1004.2 998.0 +14.4 +26.2
19 19.06 Ю 3 н/о н/о +18.7 +17.5 93 +20 +20 1004.5 998.2
20 19.06 Ю 2 н/о н/о +17.8 +16.9 94 +18 +18 1004.7 998.5
21 19.06 Ю 3 н/о н/о +17.5 +16.8 96 +18 +18 1004.7 998.4
22 19.06 Ю 2 н/о н/о +17.2 +16.6 96 +17 +17 1004.9 998.7
23 19.06 ЮЗ 1 н/о н/о +16.3 +16.0 98 +17 +17 1005.3 999.1
00 20.06 З 2 н/о н/о +15.6 +15.5 99 +16 +16 1004.9 998.7
01 20.06 ЮЗ 3 н/о н/о +15.6 +15.5 99 +15 +15 1005.1 998.8
02 20.06 ЮЗ 2 н/о н/о +15.3 +15.3 100 +15 +15 1005.0 998.7
03 20.06 ЮЗ 1 н/о н/о +15.3 +15.3 100 +16 +16 1004.9 998.6
04 20.06 З 1 н/о н/о +15.2 +15.1 99 +16 +16 1004.7 998.4
05 20.06 ЮЗ 1 н/о н/о +15.2 +15.1 99 +16 +16 1004.9 998.6
06 20.06 ЮЗ 1 н/о н/о +15.4 +15.3 99 +16 +16 1004.9 998.6 +15.0 +19.7
07 20.06 ЮЗ 2 н/о н/о +16.3 +15.6 96 +16 +16 1005.2 998.9
08 20.06 ЮЗ 3 н/о н/о +17.0 +15.8 93 +17 +17 1005.7 999.4
09 20.06 ЮЗ 4 н/о н/о +16.5 +15.3 93 +16 +16 1006.1 999.9
10 20.06 З 4 н/о н/о +16.7 +14.8 89 +16 +16 1006.7 1000.4
11 20.06 З 5 н/о н/о +15.7 +13.9 89 +14 +14 1007.4 1001.1
12 20.06 З 5 н/о н/о +14.7 +13.9 95 +13 +13 1008.1 1001.8
13 20.06 З 6 н/о н/о +16.1 +12.4 79 +15 +15 1008.5 1002.2
14 20.06 З 5 н/о н/о +16.4 +12.3 77 +16 +16 1008.9 1002.6
15 20.06 З 4 н/о н/о +16.6 +12.2 75 +16 +16 1009.5 1003.2
16 20.06 З 6 н/о н/о +16.2 +11.4 73 +15 +15 1009.7 1003.4
17 20.06 З 6 н/о н/о +14.8 +11.3 80 +13 +13 1010.3 1003.9
18 20.06 З 4 н/о н/о +14.7 +11.7 82 +13 +13 1010.4 1004.0 +14.4 +17.5
19 20.06 З 4 н/о н/о +14.0 +11.3 84 +12 +12 1010.9 1004.6
20 20.06 ЮЗ 3 н/о н/о +13.6 +11.9 89 +12 +12 1011.5 1005.2
21 20.06 ЮЗ 3 н/о н/о +12.8 +11.7 93 +11 +11 1012.0 1005.6
22 20.06 ЮЗ 3 н/о н/о +12.0 +11.4 96 +10 +10 1012.2 1005.8
23 20.06 ЮЗ 3 н/о н/о +11.3 +10.9 97 +10 +10 1012.3 1005.9
00 21.06 ЮЗ 1 н/о н/о +10.9 +10.5 97 +10 +10 1012.5 1006.1
01 21.06 ЮЗ 1 н/о н/о +10.5 +10.3 99 +11 +11 1012.7 1006.3
02 21.06 штиль 0 н/о н/о +9.5 +9.3 99 +9 +9 1013.0 1006.5
03 21.06 Ю 2 н/о н/о +10.0 +9.9 99 +9 +9 1013.3 1006.8
04 21.06 ЮЗ 1 н/о н/о +10.6 +10.2 97 +11 +11 1013.6 1007.1
05 21.06 ЮЗ 1 н/о н/о +12.5 +11.4 93 +12 +12 1013.6 1007.2
06 21.06 ЮЗ 2 н/о н/о +13.8 +11.6 87 +13 +13 1013.7 1007.3 +9.1 +15.0
07 21.06 ЮЗ 3 н/о н/о +14.5 +10.7 78 +14 +14 1013.9 1007.6
08 21.06 З 4 н/о н/о +14.5 +10.3 76 +13 +13 1014.4 1008.0
09 21.06 штиль 0 н/о н/о +12.5 +10.4 87 +12 +12 1014.9 1008.5
10 21.06 ЮЗ 6 н/о н/о +15.7 +11.5 76 +14 +14 1014.6 1008.3
11 21.06 ЮЗ 6 н/о н/о +17.0 +10.1 64 +16 +16 1014.9 1008.6
12 21.06 ЮЗ 6 н/о н/о +16.4 +9.3 63 +15 +15 1015.2 1008.8
13 21.06 З 7 н/о н/о +16.4 +9.1 62 +15 +15 1015.6 1009.3
14 21.06 З 7 н/о н/о +15.9 +9.4 65 +14 +14 1016.1 1009.7
15 21.06 З 7 н/о н/о +14.6 +9.4 71 +13 +13 1016.5 1010.1
16 21.06 З 6 н/о н/о +15.2 +9.1 67 +14 +14 1016.9 1010.5
17 21.06 СЗ 5 н/о н/о +12.9 +8.5 75 +11 +11 1017.8 1011.4
18 21.06 З 4 н/о н/о +12.6 +9.1 79 +11 +11 1018.1 1011.7 +11.6 +17.4
19 21.06 З 4 н/о н/о +12.2 +8.3 77 +10 +10 1018.5 1012.1
20 21.06 З 3 н/о н/о +11.2 +8.5 83 +9 +9 1019.1 1012.6
21 21.06 З 3 н/о н/о +10.1 +8.3 89 +8 +8 1019.8 1013.3
22 21.06 З 2 н/о н/о +9.3 +7.8 90 +7 +7 1020.3 1013.7
23 21.06 штиль 0 н/о н/о +8.5 +7.4 93 +8 +8 1020.9 1014.4
00 22.06 ЮЗ 1 н/о н/о +7.9 +7.2 95 +7 +7 1021.5 1014.9
01 22.06 ЮЗ 1 н/о н/о +8.0 +7.1 94 +7 +7 1022.0 1015.5
02 22.06 ЮЗ 1 н/о н/о +7.7 +7.2 97 +8 +8 1022.4 1015.8
03 22.06 ЮЗ 1 н/о н/о +7.7 +7.1 96 +7 +7 1022.7 1016.1
04 22.06 З 2 н/о н/о +8.8 +7.7 93 +7 +7 1023.1 1016.5
05 22.06 З 2 н/о н/о +10.4 +8.9 90 +9 +9 1023.4 1016.8
06 22.06 З 3 н/о н/о +12.8 +9.3 79 +11 +11 1024.0 1017.5 +6.9 +12.8
07 22.06 З 3 н/о н/о +14.0 +9.5 74 +13 +13 1024.1 1017.7
08 22.06 СЗ 4 н/о н/о +14.6 +8.1 65 +14 +14 1024.5 1018.1
09 22.06 СЗ 3 н/о н/о +15.3 +7.3 59 +15 +15 1024.7 1018.3
10 22.06 СЗ 3 н/о н/о +14.7 +8.1 65 +14 +14 1025.1 1018.6
11 22.06 СЗ 3 н/о н/о +15.0 +7.8 62 +15 +15 1025.3 1018.9
12 22.06 СЗ 3 н/о н/о +16.6 +8.6 59 +17 +17 1025.3 1018.9
13 22.06 СЗ 3 н/о н/о +15.4 +8.4 63 +15 +15 1025.3 1018.9
14 22.06 СЗ 3 н/о н/о +16.7 +9.0 60 +17 +17 1025.1 1018.7
15 22.06 С 3
{10}
н/о н/о +16.6 +9.0 61 +16 +16 1025.0 1018.6
16 22.06 С 5 н/о н/о +15.8 +8.0 60 +15 +15 1024.9 1018.5
17 22.06 С 4 н/о н/о +14.6 +7.3 62 +13 +13 1024.9 1018.5
18 22.06 С 3
{10}
н/о н/о +13.6 +8.4 71 +12 +12 1024.7 1018.3 +12.6 +17.0
19 22.06 С 2 н/о н/о +13.9 +9.3 74 +13 +13 1024.5 1018.1
20 22.06 С 3 н/о н/о +11.3 +9.3 87 +10 +10 1024.8 1018.3
21 22.06 СВ 2 н/о н/о +10.3 +7.9 85 +9 +9 1025.1 1018.6
22 22.06 СВ 3 н/о н/о +9.3 +7.3 87 +7 +7 1025.3 1018.7
23 22.06 СВ 2 н/о н/о +8.7 +7.1 90 +7 +7 1025.2 1018.6
00 23.06 СВ 3 н/о н/о +8.9 +7.1 88 +7 +7 1025.3 1018.8
01 23.06 СВ 3 н/о н/о +8.2 +6.7 90 +6 +6 1025.5 1018.9
02 23.06 СВ 3 н/о н/о +7.9 +6.9 93 +5 +5 1025.6 1019.1
03 23.06 СВ 2 н/о н/о +7.9 +7.0 94 +6 +6 1025.6 1019.0
04 23.06 В 3 н/о н/о +9.1 +7.2 88 +7 +7 1025.5 1018.9
05 23.06 В 1 н/о н/о +10.4 +8.1 86 +10 +10 1025.9 1019.4
06 23.06 В 3 н/о н/о +12.4 +8.0 75 +11 +11 1025.9 1019.4 +7.6 +14.1
07 23.06 ЮВ 2 н/о н/о +14.8 +10.1 73 +15 +15 1025.7 1019.2
08 23.06 ЮВ 2 н/о н/о +17.1 +10.4 65 +17 +17 1025.7 1019.3
09 23.06 ЮВ 2 н/о н/о +18.8 +9.6 55 +20 +20 1025.7 1019.4
10 23.06 ЮВ 1 н/о н/о +18.9 +10.0 56 +21 +21 комфорт 1025.6 1019.3
11 23.06 В 2 н/о н/о +19.2 +10.5 57 +21 +21 комфорт 1025.2 1018.9
12 23.06 В 3 н/о н/о +19.1 +10.9 59 +20 +20 1025.1 1018.7
13 23.06 В 2 н/о н/о +19.3 +10.2 56 +21 +21 комфорт 1025.0 1018.7
14 23.06 СВ 3 н/о н/о +19.5 +12.0 62 +21 +21 комфорт 1025.0 1018.7
15 23.06 С 3 н/о н/о +19.8 +12.2 62 +22 +22 комфорт 1024.9 1018.6
16 23.06 СВ 2 н/о н/о +20.0 +11.3 57 +22 +22 комфорт 1024.3 1018.0
17 23.06 В 3 н/о н/о +19.5 +11.2 59 +21 +21 комфорт 1024.1 1017.8
18 23.06 ЮВ 3 н/о н/о +19.5 +10.6 56 +21 +21 комфорт 1024.3 1018.0 +12.4 +20.9
19 23.06 ЮВ 3 н/о н/о +17.5 +10.7 64 +18 +18 1024.6 1018.2
20 23.06 В 3 н/о н/о +14.9 +10.3 74 +14 +14 1025.2 1018.8
21 23.06 В 3 н/о н/о +14.2 +9.2 72 +13 +13 1025.6 1019.1
22 23.06 В 3 н/о н/о +12.8 +8.8 77 +12 +12 1026.1 1019.6
23 23.06 В 3 н/о н/о +11.9 +9.5 85 +10 +10 1026.3 1019.8
00 24.06 В 3 н/о н/о +11.8 +9.8 88 +10 +10 1026.3 1019.8
01 24.06 ЮВ 3 н/о н/о +10.9 +9.5 91 +9 +9 1026.9 1020.3
02 24.06 В 2 н/о н/о +10.7 +9.3 91 +9 +9 1026.8 1020.3
03 24.06 В 3 н/о н/о +11.1 +9.6 90 +9 +9 1026.6 1020.0
04 24.06 В 3 н/о н/о +11.5 +10.0 90 +10 +10 1026.7 1020.2
05 24.06 ЮВ 3 н/о н/о +12.7 +10.9 89 +11 +11 1026.5 1020.1
06 24.06 В 3 н/о н/о +14.6 +11.8 83 +14 +14 1026.7 1020.2 +10.3 +19.6
07 24.06 В 5 н/о н/о +17.1 +12.2 73 +17 +17 1026.5 1020.1
08 24.06 В 6 н/о н/о +18.4 +10.3 59 +18 +18 1026.4 1020.0
09 24.06 В 5 н/о н/о +18.7 +10.2 58 +19 +19 1026.5 1020.1
10 24.06 В 5 н/о н/о +20.4 +11.3 56 +22 +22 комфорт 1026.4 1020.1
11 24.06 В 5 н/о н/о +21.0 +11.7 55 +23 +23 комфорт 1026.3 1020.0
12 24.06 В 5 н/о н/о +21.2 +12.5 58 +23 +23 комфорт 1025.5 1019.2
13 24.06 В 5 н/о н/о +21.7 +12.1 54 +24 +24 комфорт 1025.4 1019.1
14 24.06 В 5 н/о н/о +21.9 +11.5 52 +24 +24 комфорт 1025.0 1018.7
15 24.06 В 4 н/о н/о +22.2 +12.1 53 +25 +25 комфорт 1024.6 1018.3
16 24.06 В 5 н/о н/о +22.1 +11.5 51 +24 +24 комфорт 1024.5 1018.2
17 24.06 ЮВ 6 н/о н/о +21.5 +8.7 44 +23 +23 комфорт 1023.9 1017.6
18 24.06 ЮВ 5 н/о н/о +20.7 +10.5 52 +22 +22 комфорт 1023.6 1017.3 +14.6 +22.4
19 24.06 ЮВ 4 н/о н/о +18.7 +10.9 60 +19 +19 1023.8 1017.4
20 24.06 В 3 н/о н/о +15.9 +10.9 72 +15 +15 1023.9 1017.5
21 24.06 В 3 н/о н/о +14.5 +10.5 77 +14 +14 1023.7 1017.3
22 24.06 В 4 н/о н/о +14.2 +11.4 83 +13 +13 1023.6 1017.1
23 24.06 В 4 н/о н/о +13.1 +11.3 89 +11 +11 1023.3 1016.8
00 25.06 ЮВ 4 н/о н/о +13.6 +11.6 88 +12 +12 1023.2 1016.7
01 25.06 В 5 н/о н/о +13.9 +11.6 86 +12 +12 1022.8 1016.4
02 25.06 ЮВ 5 н/о н/о +14.1 +11.9 87 +12 +12 1022.3 1015.9
03 25.06 ЮВ 5 н/о н/о +14.6 +12.6 88 +13 +13 1022.0 1015.5
05 25.06 ЮВ 4 н/о н/о +16.0 +12.9 82 +15 +15 1021.8 1015.4
06 25.06 ЮВ 5 н/о н/о +17.5 +13.3 76 +17 +17 1021.4 1015.0 +13.0 +20.7
07 25.06 ЮВ 4 н/о н/о +18.0 +14.4 79 +18 +18 1021.4 1015.1
08 25.06 ЮВ 5 н/о н/о +19.9 +14.7 72 +22 +22 комфорт 1021.5 1015.2
09 25.06 ЮВ 5 н/о н/о +22.6 +15.7 65 +27 +27 душно 1021.3 1015.0
10 25.06 ЮВ 3 н/о н/о +24.2 +16.6 63 +28 +28 душно 1021.0 1014.8
11 25.06 ЮВ 3 н/о н/о +25.7 +16.2 56 +29 +29 душно 1020.8 1014.6

 

Местоположение метеостанции Мейруп (Дания): широта 56.38 долгота 8.67 высота над уровнем моря 55 м.

В архиве по умолчанию представлена погода в Мейрупе за последнюю неделю. Архивные данные за месяц целиком и за предыдущие месяцы, начиная с января 2011 года, Вы можете получить, выбрав интересующий диапазон дат из раскрывающегося списка и нажав кнопку "Ввод!".


*Определитесь, кто Вы:
робот инопланетянин человек

Внимание! Время в таблицах - всемирное. Для получения местного времени необходимо прибавить поправку, которая равна 1 ч.

Смотрите также архив погоды в соседних городах и на ближайших метеорологических станциях:

Погода в Карупе (Дания) (29 км)
Погода в Тыбороене (Дания) (45 км)
Погода в Исенваде (Дания) (45 км)
Погода в Исенваде (Дания) (45 км)
Погода в Боррисе (Дания) (46 км)
Погода в Силструпе (Дания) (50 км)
Погода в Хвиде Санде (Дания) (54 км)
Погода в Фоулуме (Дания) (57 км)
Погода в Алеструпе (Дания) (65 км)
Погода в Биллунде (Дания) (79 км)

Пояснения к столбцам:

Ветер - указаны скорость ветра в м/с - средняя за 10 мин, порывы в срок и между сроками (в фигурных скобках) и направление, откуда дует ветер: С - северный, СВ - северо-восточный, В - восточный, ЮВ - юго-восточный, Ю - южный, ЮЗ - юго-западный, З - западный, СЗ - северо-западный.
Видимость - горизонтальная дальность видимости в метрах или километрах. При видимости от 1 до 10 км при отсутствии осадков обычно наблюдается дымка, при ухудшении видимости до 1 км и менее - туман. В сухую погоду видимость может ухудшаться дымом, пылью или мглою.
Явления - указаны атмосферные явления, наблюдавшиеся в срок или в последний час перед сроком; фигурными скобками обозначены явления, наблюдавшиеся между сроками (за 1-3 часа до срока); квадратными скобками обозначены град или гололедные отложения с указанием их диаметра в мм.
Облачность - указаны через наклонную черту общая и нижняя облачность в баллах и высота нижней границы облаков в метрах; квадратными скобками обозначены формы облаков: Ci - перистые, Cs - перисто-слоистые, Cc - перисто-кучевые, Ac - высококучевые, As - высокослоистые, Sc - слоисто-кучевые, Ns - слоисто-дождевые, Cu - кучевые, Cb - кучево-дождевые. Подробнее классификацию облаков см. в Атласе облаков (PDF).
T - Температура воздуха - температура, измеренная на высоте 2 м над землей.
Td - Температура точки росы - температура, при понижении до которой содержащийся в воздухе водяной пар достигнет насыщения.
f - Относительная влажность воздуха - влажноcть воздуха, измеренная на высоте 2 м над землей.
Te - Эффективная температура - температура, которую ощущает одетый по сезону человек в тени. Характеристика душности погоды. При расчете учитывается влияние влажности воздуха и скорости ветра на теплоощущения человека.
Tes - Эффективная температура на солнце - температура, которую ощущает человек, с поправкой на солнечный нагрев. Характеристика знойности погоды. Зависит от высоты солнца над горизонтом, облачности и скорости ветра. Ночью, в пасмурную погоду, а также при ветре 12 м/с и более поправка равна нулю.
P - Атмосферное давление - приведенное к уровню моря атмосферное давление.
Po - Атмосферное давление - измеренное на уровне метеостанции атмосферное давление.
Tmin - Минимальная температура - минимум температуры воздуха на высоте 2 м над землей.
Tmax - Максимальная температура - максимум температуры воздуха на высоте 2 м над землей.
R - Количество осадков - Количество выпавших осадков за период времени, мм. При наведении курсора мыши на число - период времени, за который выпало указанное количество осадков.
R24 - Количество осадков - Количество выпавших осадков за 24 часа, мм.
S - Снежный покров - Высота снежного покрова, см. При наведении курсора мыши на число - состояние снежного покрова и степень покрытия местности в баллах.